Location: Lesignano de� Bagni
(44.6500°N, 10.3000°E)
Time: 11:50:19
(UTC+00:00)

SL-08 RB Rocket - Pass Details

Date: 03 March 2021
Orbit: 647 x 684 km, 97.8° (Epoch: 18 April)

Event Time Altitude Azimuth Distance (km) Brightness Sun altitude
Rises 18:49:24 0° 177° (S) 2,960 6.9 -18.5°
Reaches altitude 10° 18:51:38 10° 182° (S) 2,058 6.1 -18.9°
Maximum altitude 18:56:03 55° 260° (W) 797 4.4 -19.7°
Drops below altitude 10° 19:00:32 10° 339° (NNW) 2,097 6.7 -20.5°
Sets 19:02:50 0° 343° (NNW) 3,021 7.5 -20.9°
